Indianapolis, IN

9:21 AM EDT on July 23, 2019 (GMT -0400)
Indianapolis Terry

Weather History for KTYQ - May, 2019

Change the Weather History Date:

Wednesday, May 29, 2019

  Actual Average (WUND) Record (WUND)
Temperature  
Mean Temperature 68 °F -  
Max Temperature 75 °F - - (-1)
Min Temperature 60 °F - - (-1)
Cooling Degree Days 2    
Growing Degree Days 18 (Base 50)    
Moisture  
Dew Point 66 °F    
Average Humidity 95    
Maximum Humidity 100    
Minimum Humidity 79    
Precipitation  
Precipitation 0.11 in - - ()
Sea Level Pressure  
Sea Level Pressure 29.78 in    
Wind  
Wind Speed 4 mph ()    
Max Wind Speed 13 mph    
Max Gust Speed 18 mph    
Visibility 8.7 miles    
Events Rain , Thunderstorm    
Averages and records for this station are not official NWS values.
T = Trace of Precipitation, MM = Missing Value Source: Averaged Metar Reports

Daily Weather History Graph

Daily Weather History Graph

Search for Another Location

Airport or City:

Astronomy

May. 29, 2019 Rise Set
Actual Time 6:19 AM EDT 9:05 PM EDT
Civil Twilight 5:47 AM EDT 9:37 PM EDT
Nautical Twilight 5:07 AM EDT 10:17 PM EDT
Astronomical Twilight 4:22 AM EDT 11:03 PM EDT
Moon 3:58 AM EDT (5/29) 4:13 PM EDT (5/29)
Length of Visible Light 15h 49m
Length of Day
14h 45m
Waning Crescent, 23% of the Moon is Illuminated
May 29
Waning Crescent
Jun 3
New
Jun 10
First Quarter
Jun 17
Full
Jun 25
Last Quarter

Hourly Weather History & Observations

Time (EDT) Temp. Dew Point Humidity Pressure Visibility Wind Dir Wind Speed Gust Speed Precip Events Conditions
12:15 AM 70.9 °F 68.5 °F 92% 29.76 in 10.0 mi South 5.8 mph - N/A   Mostly Cloudy
12:35 AM 71.2 °F 68.9 °F 92% 29.76 in 10.0 mi South 4.6 mph - N/A   Scattered Clouds
12:55 AM 70.0 °F 68.9 °F 96% 29.75 in 10.0 mi Calm Calm - N/A   Mostly Cloudy
1:15 AM 69.8 °F 68.9 °F 97% 29.75 in 10.0 mi South 3.5 mph - N/A   Mostly Cloudy
1:35 AM 69.4 °F 68.9 °F 98% 29.76 in 10.0 mi WSW 3.5 mph - N/A   Mostly Cloudy
1:55 AM 70.7 °F 69.1 °F 95% 29.76 in 10.0 mi Calm Calm - N/A   Overcast
2:15 AM 70.3 °F 68.9 °F 95% 29.75 in 10.0 mi Calm Calm - N/A   Scattered Clouds
2:35 AM 68.9 °F 68.9 °F 100% 29.75 in 10.0 mi Calm Calm - N/A   Clear
2:55 AM 67.3 °F 67.3 °F 100% 29.75 in 10.0 mi Calm Calm - N/A   Clear
3:15 AM 66.2 °F 66.2 °F 100% 29.76 in 7.0 mi NNW 12.7 mph 17.3 mph N/A   Scattered Clouds
3:35 AM 63.5 °F 63.5 °F 100% 29.76 in 7.0 mi North 9.2 mph 18.4 mph N/A   Overcast
3:55 AM 62.6 °F 62.6 °F 100% 29.77 in 7.0 mi NNW 11.5 mph - N/A   Overcast
4:15 AM 61.7 °F 61.7 °F 100% 29.76 in 5.0 mi North 8.1 mph - N/A   Overcast
4:35 AM 61.0 °F 61.0 °F 100% 29.76 in 5.0 mi North 5.8 mph - N/A Rain Light Rain
4:55 AM 60.8 °F 60.8 °F 100% 29.75 in 4.0 mi East 3.5 mph - N/A Thunderstorm Overcast
5:15 AM 61.3 °F 61.3 °F 100% 29.77 in 3.0 mi WNW 4.6 mph - 0.03 in Rain Heavy Rain
5:35 AM 61.3 °F 61.3 °F 100% 29.77 in 4.0 mi NW 4.6 mph - 0.05 in Rain Light Rain
5:55 AM 61.2 °F 61.2 °F 100% 29.76 in 3.0 mi Calm Calm - 0.05 in Thunderstorm Overcast
6:15 AM 61.2 °F 61.2 °F 100% 29.77 in 4.0 mi West 3.5 mph - N/A   Overcast
6:35 AM 61.2 °F 61.2 °F 100% 29.77 in 4.0 mi WNW 4.6 mph - N/A Rain Rain
6:55 AM 60.8 °F 60.8 °F 100% 29.78 in 5.0 mi NW 6.9 mph - 0.02 in Rain , Thunderstorm Light Thunderstorms and Rain
7:15 AM 60.4 °F 60.4 °F 100% 29.82 in 7.0 mi West 6.9 mph - N/A   Scattered Clouds
7:35 AM 60.6 °F 60.6 °F 100% 29.77 in 4.0 mi ENE 5.8 mph - 0.03 in Rain Light Rain
7:55 AM 60.8 °F 60.8 °F 100% 29.75 in 5.0 mi SE 3.5 mph - 0.04 in Rain Light Rain
8:15 AM 61.7 °F 61.7 °F 100% 29.77 in 7.0 mi Calm Calm - N/A   Clear
8:35 AM 62.1 °F 62.1 °F 100% 29.78 in 7.0 mi WSW 3.5 mph - N/A   Clear
8:55 AM 62.2 °F 62.2 °F 100% 29.78 in 7.0 mi SSW 3.5 mph - N/A   Clear
9:15 AM 62.8 °F 62.8 °F 100% 29.78 in 7.0 mi South 5.8 mph - N/A   Clear
9:35 AM 63.1 °F 63.1 °F 100% 29.76 in 7.0 mi South 8.1 mph - N/A   Clear
9:55 AM 64.0 °F 64.0 °F 100% 29.76 in 10.0 mi South 6.9 mph - N/A   Clear
10:15 AM 65.3 °F 65.3 °F 100% 29.76 in 10.0 mi SSW 6.9 mph - N/A   Clear
10:35 AM 66.2 °F 66.2 °F 100% 29.75 in 10.0 mi South 6.9 mph - N/A   Clear
10:55 AM 66.7 °F 66.6 °F 99% 29.74 in 10.0 mi South 8.1 mph - N/A   Clear
11:15 AM 68.0 °F 67.1 °F 97% 29.75 in 10.0 mi SSW 4.6 mph - N/A   Clear
11:35 AM 68.7 °F 66.9 °F 94% 29.77 in 10.0 mi SW 4.6 mph - N/A   Clear
11:55 AM 69.8 °F 67.1 °F 91% 29.78 in 10.0 mi SW 9.2 mph - N/A   Clear
12:15 PM 69.8 °F 67.5 °F 92% 29.79 in 10.0 mi West 4.6 mph - N/A   Clear
12:35 PM 70.0 °F 67.1 °F 91% 29.79 in 10.0 mi SW 3.5 mph - N/A   Scattered Clouds
12:55 PM 70.2 °F 67.8 °F 92% 29.81 in 10.0 mi WSW 8.1 mph - N/A   Overcast
1:15 PM 70.7 °F 68.9 °F 94% 29.80 in 10.0 mi West 4.6 mph - N/A   Overcast
1:35 PM 70.3 °F 69.1 °F 96% 29.79 in 10.0 mi WSW 4.6 mph - N/A   Overcast
1:55 PM 70.9 °F 69.3 °F 95% 29.79 in 10.0 mi NW 5.8 mph - N/A   Overcast
2:15 PM 70.9 °F 68.0 °F 91% 29.79 in 10.0 mi NW 5.8 mph - N/A   Overcast
2:35 PM 72.3 °F 68.5 °F 88% 29.79 in 10.0 mi NNW 5.8 mph - N/A   Overcast
2:55 PM 71.8 °F 68.0 °F 88% 29.79 in 10.0 mi West 5.8 mph - N/A   Overcast
3:15 PM 71.2 °F 68.2 °F 90% 29.79 in 10.0 mi West 4.6 mph - N/A   Overcast
3:35 PM 70.9 °F 68.2 °F 91% 29.79 in 10.0 mi West 3.5 mph - N/A Rain Light Rain
3:55 PM 70.5 °F 68.4 °F 93% 29.80 in 10.0 mi NW 3.5 mph - N/A   Light Drizzle
4:15 PM 70.9 °F 68.5 °F 92% 29.80 in 10.0 mi WNW 3.5 mph - N/A   Overcast
4:35 PM 73.6 °F 69.3 °F 86% 29.79 in 10.0 mi NNW 6.9 mph - N/A   Mostly Cloudy
4:55 PM 74.5 °F 69.3 °F 84% 29.79 in 10.0 mi NNW 6.9 mph - N/A   Scattered Clouds
5:15 PM 74.3 °F 68.7 °F 83% 29.78 in 10.0 mi North 6.9 mph - N/A   Scattered Clouds
5:35 PM 75.4 °F 68.5 °F 79% 29.77 in 10.0 mi NNE 8.1 mph - N/A   Clear
5:55 PM 74.1 °F 67.1 °F 79% 29.79 in 10.0 mi North 5.8 mph - N/A   Clear
6:10 PM 73.4 °F 67.1 °F 81% 29.79 in 10.0 mi North 3.5 mph - N/A   Clear
6:30 PM 72.9 °F 66.6 °F 81% 29.79 in 10.0 mi Calm Calm - N/A   Clear
6:55 PM 72.5 °F 67.6 °F 85% 29.79 in 10.0 mi NNW 3.5 mph - N/A   Clear
7:20 PM 72.1 °F 68.2 °F 87% 29.79 in 10.0 mi Calm Calm - N/A   Clear
7:35 PM 72.9 °F 67.8 °F 84% 29.80 in 10.0 mi East 3.5 mph - N/A   Clear
8:15 PM 70.7 °F 69.8 °F 97% 29.79 in 10.0 mi Calm Calm - N/A   Clear
8:35 PM 69.8 °F 69.1 °F 98% 29.78 in 10.0 mi East 4.6 mph - N/A   Clear
9:15 PM 69.4 °F 69.1 °F 99% 29.78 in 10.0 mi Calm Calm - N/A   Clear
9:35 PM 68.7 °F 68.7 °F 100% 29.80 in 10.0 mi Calm Calm - N/A   Clear
9:55 PM 68.4 °F 68.4 °F 100% 29.81 in 10.0 mi Calm Calm - N/A   Clear
10:15 PM 68.0 °F 68.0 °F 100% 29.82 in 10.0 mi Calm Calm - N/A   Clear
10:35 PM 68.2 °F 68.2 °F 100% 29.82 in 10.0 mi Calm Calm - N/A   Clear
10:55 PM 67.8 °F 67.8 °F 100% 29.82 in 10.0 mi Calm Calm - N/A   Clear
11:20 PM 67.6 °F 67.6 °F 100% 29.83 in 10.0 mi South 3.5 mph - N/A   Scattered Clouds
11:35 PM 67.6 °F 67.6 °F 100% 29.84 in 10.0 mi Calm Calm - N/A   Mostly Cloudy
11:55 PM 68.0 °F 68.0 °F 100% 29.84 in 10.0 mi SSW 4.6 mph - N/A   Overcast